Tallahassee Regional Airport
KTLH : now visible

Airfield :











YOU CAN JOIN US ON...

 
LOGIN :

Register | Disclaimer

   EN    FR    IT 

 









Legend :    VFR   Marginal VFR   IFR   Intensive IFR   Very Intensive IFR
Visi :
Ceiling :
>= 8 km
>= 3000ft
5 to 8 km
1000 to 3000 ft
1500m to 5 km
500 to 1000 ft
800 to 1500m
200 to 500 ft
< 800m
< 200 ft
Symbols :   Thunderstorms  Fog  Heavy snow  Heavy precipitations  Wind > 20 kt






- Airport Elevation : 81 ft
- IATA code : TLH


KTLH - Tallahassee Regional

CURRENT METAR :
  • 192053Z 05008KT 020V090 10SM CLR 29/17 A3006 RMK AO2 SLP179 T02940172 56019

EXPIRED METARs :
  • 191953Z 08011KT 10SM FEW040 29/18 A3007 RMK AO2 SLP182 T02940178
  • 191853Z 03007KT 10SM SCT030 SCT100 28/18 A3009 RMK AO2 SLP186 T02780183

TAF KTLH
Valid from the 19 at 18:00 until the 20 at 18:00 UTC


191734Z 1918/2018 07009KT P6SM BKN030
FM200900 06006KT P6SM OVC007
FM201500 06009KT P6SM OVC025
KZJX FIR / North America



MET'MAP, your aeronautical weather chart ! - Copyright ORBIFLY December 2007 - Disclaimer

ORBIFLY MET'MAP TEAM :

Programming & Development : Alexandra Zaïnal
Concept & original design : Baudouin d'Aumeries
Assistance for programming : Marc-Olivier Méhu
Technical & hardware support : Manuel Goepfert

Contact : metmap@orbifly.com




SOURCES & CREDITS :

   NOAA       Earth
Advisory